Slayton, MN

5:55 AM CST on December 06, 2016 (GMT -0600)
Slayton

Weather History for KDVP - March, 2013

Change the Weather History Date:

Tuesday, March 5, 2013

  Actual Average (KOTG) Record (KOTG)
Temperature  
Mean Temperature 22 °F -  
Max Temperature 26 °F 26 °F 61 °F (1991)
Min Temperature 18 °F 13 °F -11 °F (2015)
Degree Days  
Heating Degree Days 42    
Moisture  
Dew Point 21 °F    
Average Humidity 91    
Maximum Humidity 96    
Minimum Humidity 83    
Precipitation  
Precipitation 0.00 in - - ()
Sea Level Pressure  
Sea Level Pressure 30.10 in    
Wind  
Wind Speed 13 mph (NW)    
Max Wind Speed 25 mph    
Max Gust Speed 31 mph    
Visibility 7 miles    
Events Snow    
Averages and records for this station are not official NWS values.
T = Trace of Precipitation, MM = Missing Value Source: NWS Daily Summary

Daily Weather History Graph

Daily Weather History Graph

Search for Another Location

Airport or City:

Trip Planner

Search our weather history database for the weather conditions in past years. The results will help you decide how hot, cold, wet, or windy it might be!

Date:

Astronomy

Mar. 05, 2013 Rise Set
Actual Time 6:52 AM CST 6:17 PM CST
Civil Twilight 6:23 AM CST 6:45 PM CST
Nautical Twilight 5:50 AM CST 7:19 PM CST
Astronomical Twilight 5:16 AM CST 7:52 PM CST
Moon 2:14 AM CST (3/5) 11:48 AM CST (3/5)
Length of Visible Light 12h 22m
Length of Day
11h 24m
Last Quarter, 40% of the Moon is Illuminated
Mar 5
Last Quarter
Mar 11
New
Mar 19
First Quarter
Mar 27
Full
Apr 2
Last Quarter

Hourly Weather History & Observations

Time (CST) Temp. Windchill Dew Point Humidity Pressure Visibility Wind Dir Wind Speed Gust Speed Precip Events Conditions
12:15 AM 26.6 °F 16.2 °F 22.1 °F 83% 29.93 in 5.0 mi West 11.5 mph - N/A Snow Light Snow
12:35 AM 26.2 °F 17.8 °F 22.5 °F 86% 29.92 in 7.0 mi West 8.1 mph - N/A Snow Light Snow
12:55 AM 25.7 °F 16.4 °F 22.5 °F 88% 29.92 in 10.0 mi West 9.2 mph - N/A   Overcast
1:15 AM 25.3 °F 16.0 °F 22.1 °F 87% 29.92 in 10.0 mi West 9.2 mph - N/A   Overcast
1:35 AM 25.2 °F 17.3 °F 22.1 °F 88% 29.93 in 10.0 mi West 6.9 mph - N/A   Overcast
1:55 AM 24.6 °F 16.7 °F 22.1 °F 90% 29.93 in 10.0 mi WSW 6.9 mph - N/A   Overcast
2:15 AM 24.3 °F 17.3 °F 21.7 °F 90% 29.92 in 10.0 mi WSW 5.8 mph - N/A   Scattered Clouds
2:35 AM 23.5 °F 16.4 °F 21.6 °F 92% 29.92 in 10.0 mi WSW 5.8 mph - N/A   Mostly Cloudy
2:55 AM 24.4 °F 14.9 °F 22.3 °F 91% 29.92 in 10.0 mi West 9.2 mph - N/A   Overcast
3:15 AM 23.0 °F 13.9 °F 20.7 °F 91% 29.91 in 10.0 mi WSW 8.1 mph - N/A   Mostly Cloudy
3:35 AM 21.9 °F 15.7 °F 19.6 °F 91% 29.91 in 10.0 mi West 4.6 mph - N/A   Scattered Clouds
3:55 AM 20.7 °F 13.0 °F 19.0 °F 93% 29.92 in 10.0 mi West 5.8 mph - N/A   Mostly Cloudy
4:15 AM 21.6 °F 16.8 °F 19.8 °F 93% 29.92 in 10.0 mi WNW 3.5 mph - N/A   Overcast
4:35 AM 20.7 °F 14.2 °F 19.4 °F 95% 29.92 in 10.0 mi WNW 4.6 mph - N/A   Overcast
4:55 AM 20.8 °F 16.0 °F 19.6 °F 95% 29.93 in 10.0 mi West 3.5 mph - N/A   Overcast
5:15 AM 21.6 °F 15.3 °F 20.3 °F 95% 29.93 in 10.0 mi West 4.6 mph - N/A   Overcast
5:35 AM 22.6 °F 14.3 °F 21.0 °F 93% 29.93 in 10.0 mi WNW 6.9 mph - N/A   Overcast
5:55 AM 22.8 °F 15.5 °F 21.2 °F 93% 29.94 in 10.0 mi WNW 5.8 mph - N/A   Overcast
6:14 AM 22.8 °F 13.6 °F 21.2 °F 93% 29.94 in 10.0 mi WNW 8.1 mph - N/A   Overcast
6:35 AM 22.8 °F 12.9 °F 21.2 °F 93% 29.95 in 10.0 mi WNW 9.2 mph - N/A   Overcast
7:14 AM 23.5 °F 14.5 °F 21.7 °F 93% 29.96 in 10.0 mi NW 8.1 mph - N/A   Overcast
7:35 AM 23.9 °F 13.5 °F 22.1 °F 93% 29.98 in 10.0 mi NW 10.4 mph - N/A   Overcast
7:55 AM 23.9 °F 11.7 °F 22.6 °F 95% 29.98 in 4.0 mi NW 13.8 mph - N/A Snow Light Snow
8:15 AM 24.1 °F 13.7 °F 23.0 °F 96% 29.99 in 2.0 mi NW 10.4 mph - N/A Snow Light Snow
8:35 AM 24.4 °F 11.5 °F 23.0 °F 94% 30.00 in 1.8 mi NNW 16.1 mph - N/A Snow Light Snow
8:55 AM 23.9 °F 9.9 °F 22.3 °F 94% 30.01 in 1.5 mi NNW 18.4 mph 26.5 mph N/A Snow Light Snow
9:15 AM 23.4 °F 9.6 °F 21.7 °F 94% 30.02 in 1.5 mi NW 17.3 mph 26.5 mph N/A   Overcast
9:35 AM 23.0 °F 8.3 °F 21.2 °F 93% 30.03 in 1.5 mi NNW 19.6 mph 26.5 mph N/A   Overcast
9:55 AM 23.4 °F 9.2 °F 21.2 °F 91% 30.04 in 1.8 mi NNW 18.4 mph 25.3 mph N/A   Overcast
10:15 AM 23.7 °F 9.3 °F 21.4 °F 91% 30.05 in 2.0 mi NNW 19.6 mph 24.2 mph N/A   Overcast
10:36 AM 23.5 °F 9.0 °F 21.2 °F 91% 30.06 in 2.0 mi NW 19.6 mph 23.0 mph N/A   Overcast
10:55 AM 23.7 °F 9.3 °F 21.2 °F 90% 30.07 in 2.0 mi NNW 19.6 mph 26.5 mph N/A   Overcast
11:15 AM 24.4 °F 9.5 °F 21.6 °F 89% 30.07 in 3.0 mi NNW 21.9 mph 27.6 mph N/A   Overcast
11:35 AM 24.8 °F 10.3 °F 22.1 °F 89% 30.08 in 3.0 mi NNW 20.7 mph 26.5 mph N/A   Overcast
11:55 AM 24.8 °F 11.1 °F 21.9 °F 89% 30.09 in 2.5 mi NNW 18.4 mph 27.6 mph N/A   Overcast
12:15 PM 25.3 °F 11.0 °F 22.1 °F 87% 30.10 in 2.5 mi NNW 20.7 mph 27.6 mph N/A Snow Light Snow
12:34 PM 25.2 °F 11.2 °F 22.1 °F 88% 30.10 in 3.0 mi NNW 19.6 mph 29.9 mph N/A   Overcast
12:55 PM 25.2 °F 10.8 °F 22.1 °F 88% 30.11 in 5.0 mi NNW 20.7 mph 27.6 mph N/A   Overcast
1:15 PM 24.6 °F 10.1 °F 21.7 °F 89% 30.13 in 3.0 mi NNW 20.7 mph 28.8 mph N/A   Overcast
1:34 PM 24.6 °F 8.8 °F 21.9 °F 89% 30.13 in 3.0 mi NW 25.3 mph 31.1 mph N/A   Overcast
1:55 PM 24.6 °F 9.4 °F 21.9 °F 89% 30.14 in 2.5 mi NNW 23.0 mph 29.9 mph N/A   Overcast
2:15 PM 24.8 °F 10.7 °F 22.1 °F 89% 30.14 in 1.8 mi NNW 19.6 mph 29.9 mph N/A Snow Light Snow
2:35 PM 24.6 °F 9.1 °F 21.7 °F 89% 30.15 in 2.5 mi NW 24.2 mph 29.9 mph N/A   Overcast
3:15 PM 23.7 °F 8.2 °F 21.4 °F 91% 30.17 in 3.0 mi NW 23.0 mph 28.8 mph N/A   Overcast
3:35 PM 23.2 °F 8.2 °F 21.0 °F 91% 30.17 in 3.0 mi NW 20.7 mph 27.6 mph N/A   Overcast
3:55 PM 23.0 °F 9.2 °F 20.8 °F 91% 30.18 in 3.0 mi NNW 17.3 mph 27.6 mph N/A   Overcast
4:15 PM 23.0 °F 8.0 °F 20.7 °F 91% 30.19 in 5.0 mi NNW 20.7 mph 26.5 mph N/A   Overcast
4:35 PM 23.0 °F 7.6 °F 20.8 °F 91% 30.21 in 3.0 mi NNW 21.9 mph 27.6 mph N/A   Overcast
4:55 PM 22.8 °F 7.7 °F 20.7 °F 91% 30.22 in 3.0 mi NW 20.7 mph 28.8 mph N/A   Overcast
5:15 PM 22.8 °F 7.7 °F 20.7 °F 91% 30.22 in 4.0 mi NW 20.7 mph 25.3 mph N/A Snow Light Snow
5:35 PM 22.6 °F 7.5 °F 20.7 °F 92% 30.23 in 2.5 mi NNW 20.7 mph 24.2 mph N/A Snow Light Snow
5:55 PM 22.5 °F 8.0 °F 20.8 °F 93% 30.24 in 2.0 mi NW 18.4 mph 25.3 mph N/A Snow Light Snow
6:15 PM 21.9 °F 6.9 °F 19.4 °F 90% 30.25 in 7.0 mi NNW 19.6 mph 28.8 mph N/A   Overcast
6:35 PM 21.7 °F 7.5 °F 19.4 °F 91% 30.26 in 7.0 mi NNW 17.3 mph 29.9 mph N/A   Overcast
6:55 PM 21.4 °F 7.5 °F 19.2 °F 91% 30.26 in 10.0 mi NNW 16.1 mph - N/A   Overcast
7:15 PM 21.2 °F 6.8 °F 18.9 °F 91% 30.27 in 10.0 mi NNW 17.3 mph 24.2 mph N/A   Overcast
7:35 PM 21.2 °F 7.3 °F 18.5 °F 89% 30.27 in 10.0 mi NNW 16.1 mph 25.3 mph N/A   Overcast
7:54 PM 21.0 °F 5.7 °F 18.3 °F 89% 30.28 in 10.0 mi NW 19.6 mph 27.6 mph N/A   Overcast
8:15 PM 20.8 °F 5.1 °F 18.0 °F 89% 30.29 in 10.0 mi NNW 20.7 mph 26.5 mph N/A   Overcast
8:35 PM 20.7 °F 5.7 °F 18.1 °F 90% 30.29 in 10.0 mi NNW 18.4 mph 23.0 mph N/A   Overcast
8:55 PM 20.3 °F 5.7 °F 18.1 °F 91% 30.28 in 10.0 mi NNW 17.3 mph 23.0 mph N/A   Overcast
9:15 PM 19.9 °F 4.8 °F 17.6 °F 91% 30.29 in 10.0 mi NNW 18.4 mph - N/A   Overcast
9:35 PM 19.9 °F 6.2 °F 18.0 °F 92% 30.30 in 10.0 mi NNW 15.0 mph - N/A   Overcast
9:55 PM 19.9 °F 5.2 °F 18.0 °F 92% 30.30 in 10.0 mi NNW 17.3 mph 23.0 mph N/A   Overcast
10:15 PM 19.8 °F 6.5 °F 17.6 °F 91% 30.31 in 10.0 mi NNW 13.8 mph 21.9 mph N/A   Overcast
10:35 PM 19.4 °F 5.5 °F 17.6 °F 93% 30.32 in 10.0 mi NNW 15.0 mph - N/A   Overcast
10:55 PM 19.4 °F 5.5 °F 17.6 °F 93% 30.32 in 10.0 mi NNW 15.0 mph - N/A   Overcast
11:15 PM 19.0 °F 4.5 °F 17.4 °F 93% 30.32 in 10.0 mi NNW 16.1 mph 21.9 mph N/A   Overcast
11:35 PM 19.0 °F 5.6 °F 17.6 °F 94% 30.32 in 10.0 mi NW 13.8 mph - N/A   Overcast
11:55 PM 18.9 °F 4.3 °F 17.6 °F 95% 30.32 in 10.0 mi NW 16.1 mph - N/A   Overcast